Location: Kitchener
(43.4500°N, 80.5000°W)
Time: 15:36:18
(UTC-04:00)

Daily predictions for brighter satellites

Satellite Brightness Start Highest point End
(mag) Time Altitude Azimuth Time Altitude Azimuth Time Altitude Azimuth
Meteor 1-13 Rocket 4.5 20:38:17 10° N 20:44:11 58° ENE 20:50:01 10° SSE
BREEZE-M DEB (TANK) 2.9 20:41:46 10° SSW 20:44:22 40° SE 20:50:28 10° ENE
NOSS 3-1 (A) 4.2 20:40:20 10° SW 20:46:04 59° NW 20:52:36 10° NNE
BREEZE-M DEB (TANK) 3.3 20:43:15 10° WNW 20:46:10 64° SSW 20:56:52 10° SE
H-2A R/B 3.9 20:45:16 10° S 20:48:56 46° W 20:52:35 10° NNW
NOSS 2-3 (E) 4.2 20:45:10 10° S 20:49:34 42° ESE 20:54:36 10° NE
Helios 1B rocket 3.9 20:51:14 10° NE 20:53:59 17° E 20:56:44 10° SE
Cosmos 839 Rocket 4.1 20:48:28 10° SSW 20:54:42 90° W 21:01:04 10° NNE
Resurs 1-3 3.6 20:52:23 10° SSE 20:56:46 85° ENE 21:01:11 10° NNW
USA 186 1.8 20:53:32 10° SSE 20:56:54 76° ENE 21:00:16 10° N
Lacrosse 5 2.4 20:53:09 10° SSW 20:57:46 36° SE 21:02:25 10° ENE
Cosmos 1452 Rocket 3.8 20:53:01 10° SSW 20:58:17 74° WNW 21:03:36 10° NNE
Cosmos 1850 Rocket 4.1 20:53:43 10° NNW 20:59:02 65° ENE 21:04:16 10° SSE
Cosmos 1420 Rocket 3.9 20:54:23 10° SSW 20:59:32 81° ESE 21:04:45 10° NNE
Atlas Centaur 2 4.1 20:55:45 10° WSW 21:02:43 30° S 21:08:53 10° SE
SL-8 R/B 4.3 21:00:51 10° WNW 21:05:32 51° N 21:10:14 10° E
SeaSat 1 2.7 21:03:07 10° NE 21:07:54 48° ESE 21:12:38 10° S
Cosmos 1602 4.1 21:07:57 10° SSW 21:11:46 67° W 21:15:35 10° N
Cosmos 1607 4.1 21:06:03 10° NNW 21:12:30 68° NE 21:18:19 13° SE
Cosmos 220 Rocket 4.3 21:12:58 10° N 21:17:10 49° ENE 21:20:29 16° SE
Okean 1 Rocket 3.4 21:13:46 10° SSE 21:17:52 43° E 21:22:02 10° NNE
Cosmos 2263 Rocket 2.2 21:12:47 10° NNW 21:18:32 79° ENE 21:23:58 11° SSE
Cosmos 1300 Rocket 3.5 21:14:30 10° S 21:18:46 66° E 21:23:04 10° NNE
Cosmos 1025 Rocket 3.7 21:16:40 10° N 21:20:35 34° ENE 21:23:14 17° SE
Cosmos 2278 Rocket 4.4 21:19:39 10° NNE 21:20:57 11° NE 21:22:14 10° NE
Okean 2 4.3 21:19:01 10° NNE 21:22:39 30° ENE 21:24:45 19° ESE
NOSS 2-3 (C) 3.8 21:18:27 10° SSW 21:23:08 80° SE 21:28:39 10° NE
Cosmos 2322 Rocket 2.3 21:17:41 10° SSW 21:23:24 84° WNW 21:29:08 10° NNE
Meteor 1-11 Rocket 3.8 21:19:08 10° S 21:24:59 85° W 21:30:43 10° N
YAOGAN 6 2.6 21:22:14 15° SSE 21:25:02 57° ENE 21:28:30 10° N
Cosmos 1844 Rocket 4.1 21:20:39 10° N 21:25:10 24° NE 21:28:30 15° E
S3M 4.3 21:19:19 10° NNW 21:25:35 71° W 21:31:52 10° S
Tiangong 1 1.5 21:23:01 10° W 21:25:39 39° SSW 21:26:47 25° SE
SJ-11-01 4.2 21:21:30 10° SSE 21:26:08 81° ENE 21:30:50 10° N
Cosmos 1553 Rocket 4.4 21:20:41 10° NNW 21:26:44 63° W 21:32:43 10° S
Okean 1-7 Rocket 4.1 21:25:55 10° N 21:30:12 42° ENE 21:32:58 20° SE
Spot 2 Rocket 4.4 21:26:35 10° S 21:31:31 49° W 21:36:28 10° NNW
Cosmos 2266 Rocket 3.8 21:25:55 10° S 21:31:56 76° E 21:37:58 10° N
Resurs 01 Rocket 3.1 21:28:45 10° SSW 21:32:52 36° W 21:37:00 10° NNW
USA 238 DEB 4.1 21:28:07 10° NNW 21:35:02 53° NE 21:39:58 20° ESE
Abrixas rocket 3.5 21:32:00 10° WNW 21:35:03 34° N 21:37:17 15° ENE
USA 238 4.2 21:28:13 10° NNW 21:35:08 52° NE 21:40:03 20° ESE
SL-16 R/B 2.6 21:29:58 10° SSW 21:35:36 68° WNW 21:41:17 10° NNE
Cosmos 1515 4.4 21:33:06 10° N 21:36:37 34° ENE 21:37:54 26° ESE
Cosmos 2315 Rocket 4.1 21:32:10 10° N 21:38:21 60° E 21:43:24 16° SSE
Terra 4.0 21:38:25 10° ENE 21:39:19 10° ENE 21:40:13 10° NE
Cosmos 1975 4.2 21:40:38 21° E 21:40:38 21° E 21:43:33 10° NE
Cosmos 2219 Rocket 3.9 21:42:46 14° E 21:42:46 14° E 21:44:36 10° ENE
Meteor 1-23 Rocket 4.2 21:36:10 10° N 21:41:47 88° E 21:47:03 12° S
EXPRESS MD2 3.9 21:39:35 10° W 21:42:19 50° NNW 21:47:14 10° ENE
Helios 1A 2.9 21:41:24 17° SSE 21:44:37 88° E 21:48:54 10° NNW
Cosmos 2322 3.8 21:41:30 10° S 21:46:56 51° ESE 21:52:26 10° NE
ERS-1 Rocket 3.1 21:46:40 24° SE 21:49:34 58° ENE 21:54:30 10° N
ATLAS 3B R/B 2.7 21:43:14 10° NNW 21:50:00 69° NE 21:53:56 25° SE
Cosmos 1500 3.7 21:52:06 35° ESE 21:52:44 38° E 21:56:21 10° NNE
USA 245 4.4 21:51:09 28° ESE 21:52:49 36° ENE 21:56:39 10° N
Meteor 1-29 2.9 21:49:29 10° NNE 21:52:52 59° E 21:54:00 36° SSE
Cosmos 2360 Rocket 2.1 21:50:25 10° SSW 21:56:01 75° ESE 22:01:40 10° NNE
Cosmos 1939 Rocket 4.1 21:54:13 10° SSW 21:57:56 38° W 22:01:38 10° NNW
COSMOS 2428 3.3 21:55:48 26° SE 21:57:56 35° ESE 22:03:04 10° NE
Cosmos 1536 4.1 21:55:35 10° SSW 21:59:27 41° WNW 22:03:19 10° N
Cosmos 1892 Rocket 3.8 22:05:16 10° N 22:09:36 52° ENE 22:10:26 45° ESE
H-2A R/B 2.5 22:08:23 34° ESE 22:09:44 42° ENE 22:14:25 10° N
Cosmos 2333 Rocket 3.7 22:13:04 19° ENE 22:13:04 19° ENE 22:15:31 10° NE
Cosmos 1238 Rocket 4.1 22:05:58 10° N 22:12:41 66° E 22:15:42 33° SSE
SAR-Lupe-4 3.6 22:12:33 50° S 22:13:24 76° WSW 22:17:01 10° NNW
NOAA 11 4.3 22:12:03 24° S 22:15:28 77° WSW 22:20:59 10° NNW
CZ-4B DEB 3.5 22:15:44 39° WSW 22:16:03 41° W 22:18:47 10° NNW
Cosmos 1437 Rocket 4.4 22:19:12 21° NE 22:19:12 21° NE 22:21:05 10° NNE
Cosmos 2333 4.4 22:16:47 37° SSE 22:18:19 46° ESE 22:23:40 10° NE
Cosmos 1302 Rocket 3.9 22:19:34 28° S 22:22:17 66° ESE 22:27:31 10° NNE
Cosmos 1544 Rocket 3.6 22:24:22 56° ESE 22:24:36 57° E 22:28:58 10° NNE
Cosmos 1486 Rocket 3.9 22:19:31 10° NNW 22:24:46 75° ENE 22:26:11 49° SE
MetOp-A 4.2 22:24:43 32° S 22:27:14 74° WSW 22:32:37 10° NNW
Aureole 3 Rocket 4.3 22:18:43 10° N 22:27:17 80° E 22:30:15 36° SSE
Cosmos 2237 Rocket 4.1 22:30:37 15° ENE 22:30:37 15° ENE 22:31:57 10° NE
Cosmos 405 3.0 22:28:31 73° NNE 22:28:31 73° NNE 22:31:48 10° N
Helios 1B rocket 3.7 22:25:37 10° N 22:29:28 40° WNW 22:33:18 10° SW
ATLAS 2AS CENTAUR R/B 3.5 22:22:02 10° SW 22:29:44 63° NW 22:37:50 10° NNE
SAR-Lupe-1 4.5 22:29:54 52° SW 22:30:17 55° W 22:33:49 10° NNW
BREEZE M DEB (TANK) 2.7 22:27:57 10° SW 22:33:38 54° SSW 22:33:38 54° SSW
SPOT 5 2.7 22:33:36 58° SSE 22:34:34 85° ENE 22:39:14 10° NNW
Cosmos 1241 Rocket 4.4 22:28:49 10° SSW 22:35:20 70° ESE 22:41:47 10° NE
Cosmos 1455 Rocket 3.0 22:37:04 68° E 22:37:04 68° E 22:41:26 10° NNE
Cosmos 1666 4.5 22:39:56 23° NE 22:39:56 23° NE 22:41:40 10° NNE
CENTAUR R/B 4.2 22:32:05 10° NNW 22:38:50 32° NE 22:43:21 20° E
Cosmos 1066 Rocket 4.1 22:34:15 10° N 22:39:42 87° W 22:41:16 49° S
NOSS 3-4 (A) 4.0 22:41:26 38° E 22:41:26 38° E 22:46:19 10° NE
NOSS 3-4 (C) 4.1 22:41:37 37° E 22:41:37 37° E 22:46:25 10° NE
Lacrosse 5 2.9 22:35:47 10° WSW 22:40:40 46° NW 22:45:35 10° NE
SL-8 R/B 3.7 22:43:29 10° WNW 22:48:14 68° SSW 22:48:14 68° SSW
SL-08 RB Rocket 3.9 22:49:38 58° SW 22:50:12 65° W 22:54:44 10° NNW
Atlas Centaur 2 4.3 22:46:22 10° WSW 22:51:06 17° SSW 22:51:30 17° SSW
ARGOS 3.6 22:49:54 38° SSW 22:51:42 56° W 22:56:59 10° NNW
Nadezhda 1 Rocket 3.9 22:45:27 10° N 22:51:47 73° E 22:53:09 56° SE
Cosmos 1743 3.8 22:56:16 38° NNE 22:56:16 38° NNE 22:58:44 10° N
Meteor 1-21 4.1 22:55:16 10° N 23:00:54 69° ENE 23:01:12 67° E
Landsat 7 3.7 23:01:05 79° NE 23:01:05 79° NE 23:05:41 10° NNW
Cosmos 1354 Rocket 3.9 22:57:10 10° NNW 23:02:32 83° ENE 23:02:44 81° ESE
DMSP B5D2-2 4.0 22:57:40 10° NNE 23:02:48 73° E 23:02:48 73° E
Cosmos 2278 Rocket 2.5 23:00:52 10° NNW 23:06:26 52° ENE 23:06:39 52° ENE
Cosmos 1844 Rocket 2.9 23:03:54 10° NNW 23:09:30 61° WSW 23:10:09 57° SW
CARTOSAT-1 4.2 23:10:33 50° N 23:10:33 50° N 23:13:52 10° N
Cosmos 1709 Rocket 4.2 23:10:41 51° E 23:10:41 51° E 23:16:23 10° NNE
Cosmos 2181 Rocket 4.5 23:04:19 10° N 23:10:29 45° ENE 23:10:38 45° E
SPOT 1/Viking Rocket 3.8 23:10:41 55° SW 23:11:17 59° W 23:16:27 10° NNW
Cosmos 1818 3.7 23:10:06 32° SW 23:12:37 71° NW 23:18:05 10° NNE
Terra 2.1 23:16:55 65° N 23:16:55 65° N 23:21:02 10° N
Cosmos 1975 4.5 23:16:24 28° W 23:16:52 29° WNW 23:20:23 10° NNW
Nimbus 7 Rocket 4.4 23:12:31 10° NNE 23:18:22 75° WNW 23:19:44 54° SW
Cosmos 1602 Rocket 4.3 23:16:38 10° N 23:19:50 49° NNW 23:19:50 49° NNW
H-2A R/B 3.3 23:23:50 35° NNE 23:23:50 35° NNE 23:26:41 10° N
Cosmos 1503 Rocket 4.2 23:18:19 10° NNW 23:23:33 65° W 23:23:33 65° W
BREEZE-M DEB 4.1 23:18:21 10° WNW 23:22:33 39° WNW 23:22:33 39° WNW
NOSS 3-2 (A) 4.0 23:16:29 10° NW 23:24:00 71° WSW 23:25:38 57° S
Cosmos 2219 Rocket 2.2 23:24:25 76° WSW 23:24:44 79° WNW 23:30:25 10° NNE
USA 81 4.4 23:20:05 10° N 23:24:28 55° NE 23:24:28 55° NE
Cosmos 724 4.3 23:21:02 10° NW 23:26:49 66° WSW 23:26:49 66° WSW
Meteor 2-9 Rocket 4.3 23:27:37 69° NE 23:27:37 69° NE 23:32:42 10° NNE
SL-16 R/B 4.1 23:39:45 18° NE 23:39:45 18° NE 23:41:28 10° NE
ATLAS 3B R/B 4.1 23:34:56 10° WNW 23:40:02 24° WSW 23:41:11 23° SW
COSMOS 2428 4.0 23:37:40 14° WSW 23:42:08 38° WNW 23:47:28 10° NNE
H-2A R/B 3.7 23:49:01 24° W 23:49:18 24° W 23:53:19 10° NW
NOSS 0 Rocket 4.0 23:51:56 76° WNW 23:51:56 76° WNW 23:58:10 10° NNE
ATLAS CENTAUR R/B 3.9 23:52:11 10° NNW 23:53:18 16° N 23:53:18 16° N
